QPF
0.00 0.00 0.00 0.00 0.00 0.00 0.00 0.01 0.01 0.02 0.03 0.06 0.11 0.09 0.09 0.06 0.02 0.02 0.04 0.05 0.04 0.04 0.03 0.01 0.01 0.00 0.00 0.00 0.00 0.00 0.00 0.00 0.00 0.00 0.00 0.00 0.00 0.00 0.00 0.00 0.00 0.00 0.00
0.00 0.00 0.00 0.00 0.00 0.00 0.00 0.00 0.01 0.02 0.04 0.05 0.14 0.17 0.16 0.12 0.07 0.05 0.07 0.06 0.05 0.04 0.03 0.01 0.00 0.00 0.00 0.00 0.00 0.00 0.00 0.00 0.00 0.00 0.00 0.00 0.00 0.00 0.00 0.00 0.00 0.00 0.00
0.00 0.00 0.00 0.00 0.00 0.00 0.00 0.00 0.01 0.04 0.03 0.10 0.08 0.11 0.12 0.12 0.12 0.11 0.08 0.07 0.04 0.02 0.00 0.00 0.00 0.00 0.00 0.00 0.00 0.00 0.00 0.00 0.00 0.00 0.00 0.00 0.00 0.00 0.00 0.00 0.00 0.00 0.00
0.00 0.00 0.00 0.00 0.00 0.00 0.00 0.00 0.01 0.07 0.08 0.09 0.07 0.05 0.08 0.09 0.07 0.10 0.13 0.09 0.06 0.03 0.00 0.00 0.00 0.00 0.00 0.00 0.00 0.00 0.00 0.00 0.00 0.00 0.00 0.00 0.00 0.00 0.00 0.00 0.00 0.00 0.00
0.00 0.00 0.00 0.00 0.00 0.00 0.00 0.00 0.03 0.12 0.04 0.03 0.04 0.05 0.10 0.11 0.08 0.08 0.09 0.08 0.07 0.02 0.00 0.00 0.00 0.00 0.00 0.00 0.00 0.00 0.00 0.00 0.00 0.00 0.00 0.00 0.00 0.00 0.00 0.00 0.00 0.00 0.00
0.00 0.00 0.00 0.00 0.00 0.00 0.00 0.05 0.13 0.02 0.01 0.03 0.05 0.07 0.15 0.13 0.10 0.09 0.06 0.07 0.04 0.01 0.00 0.00 0.00 0.00 0.00 0.00 0.00 0.00 0.00 0.00 0.00 0.00 0.00 0.00 0.00 0.00 0.00 0.00 0.00 0.00 0.00
0.00 0.00 0.00 0.00 0.00 0.00 0.12 0.21 0.02 0.00 0.01 0.01 0.03 0.08 0.16 0.14 0.14 0.10 0.08 0.07 0.02 0.00 0.00 0.00 0.00 0.00 0.00 0.00 0.00 0.00 0.00 0.00 0.00 0.00 0.00 0.00 0.00 0.00 0.00 0.00 0.00 0.00 0.00
0.00 0.00 0.00 0.00 0.00 0.03 0.29 0.25 0.08 0.03 0.05 0.06 0.09 0.15 0.18 0.12 0.09 0.08 0.04 0.02 0.01 0.00 0.00 0.00 0.00 0.00 0.00 0.00 0.00 0.00 0.00 0.00 0.00 0.00 0.00 0.00 0.00 0.00 0.00 0.00 0.00 0.00 0.00
0.00 0.00 0.00 0.00 0.00 0.08 0.07 0.06 0.09 0.13 0.08 0.11 0.15 0.15 0.16 0.10 0.04 0.03 0.02 0.00 0.00 0.00 0.00 0.00 0.00 0.00 0.00 0.00 0.00 0.00 0.00 0.00 0.00 0.00 0.00 0.00 0.00 0.00 0.00 0.00 0.00 0.00 0.00
0.00 0.00 0.00 0.00 0.04 0.06 0.02 0.02 0.10 0.12 0.14 0.14 0.18 0.19 0.17 0.08 0.02 0.00 0.00 0.00 0.00 0.00 0.00 0.00 0.00 0.00 0.00 0.00 0.00 0.00 0.00 0.00 0.00 0.00 0.00 0.00 0.00 0.00 0.00 0.00 0.00 0.00 0.00
0.00 0.00 0.03 0.11 0.08 0.04 0.07 0.16 0.15 0.11 0.16 0.16 0.16 0.13 0.13 0.06 0.01 0.00 0.00 0.00 0.00 0.00 0.00 0.00 0.00 0.00 0.00 0.00 0.00 0.00 0.00 0.00 0.00 0.00 0.00 0.00 0.00 0.00 0.00 0.00 0.00 0.00 0.00
0.01 0.03 0.06 0.04 0.02 0.02 0.04 0.05 0.07 0.07 0.09 0.10 0.14 0.07 0.05 0.02 0.01 0.00 0.00 0.00 0.00 0.00 0.00 0.00 0.00 0.00 0.00 0.00 0.00 0.00 0.00 0.00 0.00 0.00 0.00 0.00 0.00 0.00 0.00 0.00 0.00 0.00 0.00
0.03 0.03 0.02 0.01 0.01 0.04 0.07 0.05 0.04 0.03 0.03 0.03 0.05 0.02 0.01 0.00 0.00 0.00 0.00 0.00 0.00 0.00 0.00 0.00 0.00 0.00 0.00 0.00 0.00 0.00 0.00 0.00 0.00 0.00 0.00 0.00 0.00 0.00 0.00 0.00 0.00 0.00 0.00
0.01 0.00 0.00 0.00 0.01 0.02 0.03 0.02 0.02 0.02 0.01 0.00 0.00 0.00 0.00 0.00 0.00 0.00 0.00 0.00 0.00 0.00 0.00 0.00 0.00 0.00 0.00 0.00 0.00 0.00 0.00 0.00 0.00 0.00 0.00 0.00 0.00 0.00 0.00 0.00 0.00 0.00 0.00
0.00 0.00 0.00 0.00 0.00 0.00 0.00 0.00 0.00 0.00 0.00 0.00 0.00 0.00 0.00 0.00 0.00 0.00 0.00 0.00 0.00 0.00 0.00 0.00 0.00 0.00 0.00 0.00 0.00 0.00 0.00 0.00 0.00 0.00 0.00 0.00 0.00 0.00 0.00 0.00 0.00 0.00 0.00
0.00 0.00 0.00 0.00 0.00 0.00 0.00 0.00 0.00 0.00 0.00 0.00 0.00 0.00 0.00 0.00 0.00 0.00 0.00 0.00 0.00 0.00 0.00 0.00 0.00 0.00 0.00 0.00 0.00 0.00 0.00 0.00 0.00 0.00 0.00 0.00 0.00 0.00 0.00 0.00 0.00 0.00 0.00
0.00 0.00 0.00 0.00 0.00 0.00 0.00 0.00 0.00 0.00 0.00 0.00 0.00 0.00 0.00 0.00 0.00 0.00 0.00 0.00 0.00 0.00 0.00 0.00 0.00 0.00 0.00 0.00 0.00 0.00 0.00 0.00 0.00 0.00 0.00 0.00 0.00 0.00 0.00 0.00 0.00 0.00 0.00
0.00 0.00 0.00 0.00 0.00 0.00 0.00 0.00 0.00 0.00 0.00 0.00 0.00 0.00 0.00 0.00 0.00 0.00 0.00 0.00 0.00 0.00 0.00 0.00 0.00 0.00 0.00 0.00 0.00 0.00 0.00 0.00 0.00 0.00 0.00 0.00 0.00 0.00 0.00 0.00 0.00 0.00 0.00
0.00 0.00 0.00 0.00 0.00 0.00 0.00 0.00 0.00 0.00 0.00 0.00 0.00 0.00 0.00 0.00 0.00 0.00 0.00 0.00 0.00 0.00 0.00 0.00 0.00 0.00 0.00 0.00 0.00 0.00 0.00 0.00 0.00 0.00 0.00 0.00 0.00 0.00 0.00 0.00 0.00 0.00 0.00
0.00 0.00 0.00 0.00 0.00 0.00 0.00 0.00 0.00 0.00 0.00 0.00 0.00 0.00 0.00 0.00 0.00 0.00 0.00 0.00 0.00 0.00 0.00 0.00 0.00 0.00 0.00 0.00 0.00 0.00 0.00 0.00 0.00 0.00 0.00 0.00 0.00 0.00 0.00 0.00 0.00 0.00 0.00
0.00 0.00 0.00 0.00 0.00 0.00 0.00 0.00 0.00 0.00 0.00 0.00 0.00 0.00 0.00 0.00 0.00 0.00 0.00 0.00 0.00 0.00 0.00 0.00 0.00 0.00 0.00 0.00 0.00 0.00 0.00 0.00 0.00 0.00 0.00 0.00 0.00 0.00 0.00 0.00 0.00 0.00 0.00
0.00 0.00 0.00 0.00 0.00 0.00 0.00 0.00 0.00 0.00 0.00 0.00 0.00 0.00 0.00 0.00 0.00 0.00 0.00 0.00 0.00 0.00 0.00 0.00 0.00 0.00 0.00 0.00 0.00 0.00 0.00 0.00 0.00 0.00 0.00 0.00 0.00 0.00 0.00 0.00 0.00 0.00 0.00
0.00 0.00 0.00 0.00 0.00 0.00 0.00 0.00 0.00 0.00 0.00 0.00 0.00 0.00 0.00 0.00 0.00 0.00 0.00 0.00 0.00 0.00 0.00 0.00 0.00 0.00 0.00 0.00 0.00 0.00 0.00 0.00 0.00 0.00 0.00 0.00 0.00 0.00 0.00 0.00 0.00 0.00 0.00
0.00 0.00 0.00 0.00 0.00 0.00 0.00 0.00 0.00 0.00 0.00 0.00 0.00 0.00 0.00 0.00 0.00 0.00 0.00 0.00 0.00 0.00 0.00 0.00 0.00 0.00 0.00 0.00 0.00 0.00 0.00 0.00 0.00 0.00 0.00 0.00 0.00 0.00 0.00 0.00 0.00 0.00 0.00
0.00 0.00 0.00 0.00 0.00 0.00 0.00 0.00 0.00 0.00 0.00 0.00 0.00 0.00 0.00 0.00 0.00 0.00 0.00 0.00 0.00 0.00 0.00 0.00 0.00 0.00 0.00 0.00 0.00 0.00 0.00 0.00 0.00 0.00 0.00 0.00 0.00 0.00 0.00 0.00 0.00 0.00 0.00
0.00 0.00 0.00 0.00 0.00 0.00 0.00 0.00 0.00 0.00 0.00 0.00 0.00 0.00 0.00 0.00 0.00 0.00 0.00 0.00 0.00 0.00 0.00 0.00 0.00 0.00 0.00 0.00 0.00 0.00 0.00 0.00 0.00 0.00 0.00 0.00 0.00 0.00 0.00 0.00 0.00 0.00 0.00
MSLP
1001.68 1001.57 1001.40 1001.05 1001.00 1000.78 1000.87 1001.39 1001.02 1001.13 1001.18 1001.43 1002.37 1003.11 1003.78 1004.37 1005.57 1007.10 1008.22 1009.36 1010.42 1011.86 1013.60 1014.21 1014.79 1015.64 1016.62 1016.29 1015.98 1015.84 1015.54 1015.15 1014.74 1014.67 1014.93 1015.22 1015.85 1015.91 1015.60 1015.31 1014.30 1013.96 1012.96
1001.28 1001.27 1001.25 1000.97 1000.78 1000.63 1000.20 1000.36 1000.76 1000.82 1001.14 1001.36 1002.17 1003.32 1004.04 1005.19 1007.13 1008.46 1008.75 1009.77 1011.35 1012.77 1013.50 1013.92 1015.11 1016.02 1016.33 1016.91 1016.11 1016.28 1016.59 1016.57 1015.60 1015.25 1015.35 1015.59 1015.91 1015.77 1015.71 1014.99 1014.24 1013.57 1013.06
1000.77 1000.86 1000.77 1000.70 1000.53 1000.19 999.97 999.73 1000.10 1000.27 1000.42 1001.07 1002.44 1003.57 1004.39 1006.37 1008.04 1010.41 1010.18 1010.77 1012.33 1013.05 1014.22 1013.66 1015.43 1015.14 1016.96 1017.06 1016.44 1016.67 1016.32 1017.23 1016.80 1015.93 1015.70 1015.70 1015.76 1015.45 1015.23 1014.38 1014.07 1013.22 1012.29
1000.37 1000.38 1000.21 1000.10 999.95 999.73 999.51 999.14 999.19 999.66 999.95 1000.84 1002.11 1003.44 1004.33 1005.88 1007.30 1011.28 1008.99 1011.20 1011.49 1013.33 1013.63 1015.41 1014.36 1015.62 1017.08 1017.17 1017.56 1017.55 1017.25 1017.40 1017.09 1016.06 1015.91 1015.57 1015.42 1015.51 1015.15 1014.40 1013.62 1012.91 1012.14
999.94 999.84 999.76 999.66 999.44 999.18 998.87 998.71 998.64 999.51 1000.92 1002.11 1002.76 1004.24 1005.30 1006.68 1006.28 1010.96 1010.75 1012.12 1012.54 1013.90 1015.24 1015.25 1014.68 1015.30 1016.60 1017.31 1017.57 1017.88 1017.90 1017.66 1016.81 1016.42 1016.14 1015.77 1015.95 1015.80 1015.19 1014.72 1013.93 1013.25 1011.85
999.33 999.25 999.18 999.07 998.91 998.60 998.59 998.69 999.06 1000.51 1001.76 1002.69 1004.06 1005.01 1005.88 1007.32 1007.98 1008.83 1011.70 1012.40 1013.39 1013.67 1014.81 1015.04 1016.02 1015.74 1016.59 1017.70 1018.16 1018.87 1018.83 1018.00 1017.68 1017.35 1016.90 1017.10 1016.85 1016.62 1016.18 1015.52 1014.20 1013.33 1012.13
998.68 998.57 998.49 998.45 998.33 998.10 998.32 998.60 1000.13 1001.28 1002.42 1003.34 1004.81 1006.08 1007.12 1008.05 1009.28 1009.02 1011.93 1013.00 1013.48 1013.91 1014.31 1014.66 1015.16 1016.28 1017.40 1018.25 1018.77 1019.04 1019.03 1018.89 1018.95 1018.45 1018.24 1018.11 1017.67 1017.90 1017.14 1015.99 1015.12 1014.08 1013.10
997.84 997.70 997.84 997.86 997.58 997.55 997.99 999.57 1000.90 1001.78 1002.97 1004.16 1005.81 1007.42 1008.39 1009.69 1010.25 1011.09 1012.42 1012.79 1014.44 1014.71 1014.39 1014.51 1014.89 1016.79 1017.89 1018.22 1018.43 1018.74 1018.81 1019.08 1019.38 1019.01 1018.98 1018.98 1018.89 1018.87 1018.23 1016.76 1015.30 1014.28 1012.95
997.05 997.07 997.19 997.09 997.09 996.97 998.03 999.66 1000.91 1002.62 1004.15 1005.09 1006.20 1007.66 1009.16 1010.50 1011.14 1011.14 1011.86 1012.91 1013.88 1014.49 1013.98 1015.13 1016.08 1017.63 1018.57 1018.60 1018.66 1018.63 1018.85 1019.05 1020.02 1019.76 1019.60 1019.61 1019.37 1019.20 1018.64 1017.05 1015.70 1014.17 1013.05
996.30 996.41 996.68 996.53 996.35 997.46 998.73 1000.20 1001.45 1002.58 1004.57 1006.09 1007.18 1008.71 1010.05 1011.32 1011.39 1011.89 1012.10 1012.26 1013.43 1013.88 1015.05 1016.67 1017.51 1018.62 1019.04 1018.95 1018.67 1018.72 1018.93 1019.36 1018.95 1018.61 1018.61 1018.51 1018.29 1018.01 1018.10 1017.16 1016.26 1015.24 1013.97
995.93 996.13 996.26 996.13 996.32 998.49 1000.12 1001.43 1002.65 1003.39 1005.50 1007.42 1008.49 1009.97 1011.41 1012.18 1011.93 1012.01 1012.45 1012.76 1013.02 1014.07 1016.09 1017.47 1018.93 1019.41 1019.62 1019.85 1019.79 1019.87 1019.98 1019.51 1018.89 1018.37 1017.96 1017.77 1017.54 1017.34 1017.17 1017.14 1016.80 1015.91 1014.94
995.89 995.66 996.07 997.05 998.46 999.95 1000.93 1002.44 1003.68 1005.13 1006.63 1008.35 1009.18 1011.05 1012.81 1013.05 1012.88 1012.79 1012.98 1012.95 1013.91 1015.10 1016.95 1018.10 1019.76 1020.26 1020.45 1020.61 1020.73 1020.60 1020.09 1019.74 1018.92 1018.34 1017.84 1017.94 1017.52 1017.28 1017.34 1017.18 1016.51 1016.04 1015.36
995.56 996.21 997.55 998.91 1000.45 1001.70 1001.99 1003.53 1004.80 1006.39 1007.65 1009.54 1010.61 1011.49 1013.49 1013.70 1014.20 1014.67 1014.95 1014.61 1015.05 1016.18 1017.73 1019.39 1020.42 1020.57 1020.77 1021.18 1020.91 1020.70 1020.10 1019.52 1019.08 1018.73 1018.38 1018.27 1017.99 1017.78 1017.32 1016.76 1015.87 1015.25 1014.69
995.75 997.63 999.06 1000.33 1002.03 1003.37 1004.39 1005.32 1006.01 1007.13 1008.91 1011.00 1012.59 1014.05 1013.53 1014.44 1015.50 1015.68 1016.08 1016.39 1016.44 1017.74 1019.63 1020.17 1020.51 1020.66 1020.93 1020.76 1020.67 1020.59 1020.57 1020.40 1019.73 1019.32 1019.17 1018.83 1018.43 1017.84 1017.28 1016.59 1015.79 1015.38 1014.96
997.09 998.91 1000.42 1001.95 1003.28 1004.78 1006.41 1007.80 1008.12 1009.62 1009.77 1010.49 1014.04 1014.46 1015.06 1014.52 1015.67 1016.46 1016.61 1016.72 1017.80 1018.87 1019.76 1020.10 1020.16 1020.31 1020.50 1020.65 1020.84 1020.75 1020.87 1020.68 1020.31 1020.11 1019.89 1019.11 1018.37 1018.04 1017.30 1017.06 1016.60 1016.13 1015.94
998.65 1000.38 1002.05 1003.53 1005.13 1006.49 1006.57 1009.10 1011.27 1011.02 1011.67 1013.09 1015.11 1016.32 1015.86 1015.42 1016.70 1017.07 1017.66 1018.17 1018.75 1019.45 1019.55 1019.84 1020.11 1020.56 1020.75 1020.82 1020.81 1021.04 1021.33 1021.40 1021.15 1020.64 1020.31 1019.82 1018.92 1018.13 1017.88 1017.42 1017.22 1016.84 1016.73
1000.60 1002.37 1003.90 1004.95 1006.40 1007.32 1008.47 1009.29 1011.22 1013.52 1014.44 1015.36 1016.95 1017.16 1015.75 1017.02 1018.04 1018.67 1018.65 1019.26 1019.89 1019.97 1019.91 1020.26 1020.60 1021.07 1021.20 1021.28 1021.56 1021.60 1021.84 1022.26 1021.78 1021.12 1020.64 1020.30 1019.61 1018.95 1018.50 1018.31 1018.01 1017.65 1017.50
1003.05 1004.10 1005.14 1006.55 1007.38 1008.45 1009.88 1010.78 1011.89 1013.92 1015.59 1017.21 1017.97 1017.66 1018.36 1019.10 1019.25 1019.49 1019.72 1019.92 1020.25 1020.50 1020.38 1020.95 1021.40 1021.55 1021.79 1021.97 1022.20 1022.56 1022.59 1022.31 1022.00 1021.72 1021.51 1021.21 1020.48 1020.00 1019.46 1019.02 1018.62 1018.38 1017.97
1004.62 1005.77 1006.54 1007.64 1008.84 1009.76 1011.65 1012.66 1013.41 1014.55 1016.09 1017.41 1018.48 1019.65 1019.98 1019.92 1019.97 1020.21 1020.34 1020.20 1020.40 1020.91 1021.36 1021.55 1021.95 1022.31 1022.58 1022.72 1023.00 1023.23 1023.09 1023.01 1022.45 1022.10 1022.14 1022.15 1021.78 1020.81 1020.29 1019.73 1019.20 1018.94 1018.36
1006.44 1007.25 1008.08 1009.08 1010.02 1011.12 1012.19 1012.82 1014.16 1015.42 1016.55 1017.59 1018.58 1019.59 1020.00 1019.71 1020.03 1020.35 1020.60 1020.89 1021.32 1021.73 1021.89 1022.53 1022.94 1023.17 1023.33 1023.21 1023.27 1023.20 1023.08 1022.93 1022.88 1022.96 1022.80 1023.16 1022.55 1021.77 1020.81 1020.24 1019.81 1019.26 1018.76
1008.12 1009.13 1009.66 1010.60 1011.55 1012.31 1013.21 1014.11 1015.19 1016.14 1017.00 1018.14 1018.86 1019.32 1019.66 1019.75 1020.27 1020.74 1021.43 1021.94 1022.14 1022.68 1023.00 1023.38 1023.58 1023.71 1024.02 1023.95 1023.67 1023.69 1023.67 1023.58 1023.80 1023.45 1023.37 1023.83 1023.00 1022.44 1021.69 1020.77 1020.45 1020.01 1019.48
1009.16 1009.85 1010.52 1011.14 1012.18 1013.16 1014.15 1014.82 1015.48 1016.24 1017.06 1018.11 1019.24 1020.23 1020.29 1020.31 1020.87 1021.69 1022.24 1022.67 1023.23 1023.74 1024.08 1024.22 1024.46 1024.79 1024.85 1024.93 1024.70 1024.58 1024.65 1024.62 1024.39 1023.80 1023.99 1023.90 1023.56 1022.93 1022.15 1021.44 1021.01 1020.48 1019.85
1009.49 1010.22 1011.08 1012.13 1013.12 1013.85 1014.48 1015.38 1016.34 1017.22 1018.13 1018.92 1019.47 1019.96 1020.66 1021.31 1021.96 1022.52 1022.97 1023.63 1024.29 1024.69 1024.66 1024.84 1025.06 1025.41 1025.74 1025.78 1025.95 1025.83 1025.85 1025.67 1025.15 1024.82 1024.13 1024.21 1023.63 1023.45 1022.64 1022.27 1021.68 1021.07 1020.65
1010.84 1011.59 1012.33 1013.12 1013.85 1014.52 1015.23 1016.06 1017.03 1017.76 1018.38 1019.05 1019.73 1020.49 1021.28 1022.07 1022.74 1023.55 1024.23 1024.75 1024.95 1025.30 1025.75 1026.00 1026.09 1026.03 1026.22 1026.68 1026.75 1027.22 1027.59 1027.31 1026.21 1025.36 1024.81 1024.46 1024.05 1023.78 1023.40 1022.87 1022.31 1021.84 1021.30
1011.80 1012.51 1013.23 1013.92 1014.71 1015.56 1016.30 1016.96 1017.67 1018.29 1018.81 1019.55 1020.43 1021.42 1022.31 1023.12 1023.89 1024.43 1024.77 1025.14 1025.60 1026.23 1026.53 1026.69 1026.82 1027.20 1027.84 1027.92 1027.96 1028.33 1028.92 1028.65 1027.69 1026.99 1025.38 1024.95 1024.59 1024.46 1024.24 1023.47 1023.10 1022.42 1022.07
1013.18 1013.79 1014.42 1015.08 1015.67 1016.32 1016.99 1017.57 1018.32 1019.00 1019.68 1020.53 1021.46 1022.27 1023.02 1023.77 1024.43 1024.84 1025.39 1025.76 1026.20 1026.75 1026.92 1027.27 1027.69 1028.13 1028.77 1028.60 1029.11 1029.60 1029.56 1028.89 1028.02 1027.56 1026.54 1025.62 1025.26 1024.94 1024.91 1024.14 1023.78 1023.25 1022.87
Thickness
5619 5626 5631 5637 5641 5647 5652 5658 5672 5682 5691 5700 5705 5708 5712 5714 5708 5701 5698 5693 5688 5678 5664 5659 5654 5646 5634 5634 5637 5634 5635 5634 5633 5634 5630 5625 5612 5603 5598 5591 5588 5574 5569
5607 5615 5621 5627 5632 5636 5647 5654 5661 5672 5680 5689 5695 5694 5696 5692 5683 5681 5683 5682 5672 5662 5655 5653 5643 5636 5632 5624 5628 5626 5619 5616 5623 5622 5619 5612 5603 5596 5589 5583 5574 5565 5554
5598 5604 5611 5617 5624 5632 5638 5648 5653 5663 5675 5680 5676 5678 5681 5671 5661 5647 5650 5662 5655 5652 5641 5647 5630 5635 5616 5615 5621 5617 5618 5604 5606 5612 5609 5603 5596 5591 5583 5578 5564 5556 5550
5586 5594 5601 5610 5618 5627 5634 5643 5649 5654 5664 5668 5667 5666 5671 5666 5653 5628 5646 5648 5649 5642 5629 5618 5629 5620 5609 5606 5602 5601 5602 5599 5599 5606 5602 5598 5592 5582 5574 5566 5556 5550 5545
5577 5586 5594 5604 5613 5621 5631 5637 5643 5643 5641 5646 5651 5650 5651 5650 5662 5614 5635 5629 5632 5624 5613 5615 5622 5618 5607 5600 5599 5593 5591 5591 5599 5599 5594 5591 5581 5571 5563 5554 5548 5540 5543
5570 5578 5589 5599 5607 5617 5623 5629 5632 5625 5626 5631 5630 5632 5638 5636 5635 5636 5621 5620 5616 5618 5611 5612 5605 5608 5601 5590 5586 5578 5577 5586 5587 5585 5582 5572 5565 5555 5544 5538 5539 5535 5538
5561 5574 5585 5594 5602 5613 5618 5622 5611 5612 5612 5615 5616 5615 5616 5621 5616 5627 5613 5608 5609 5609 5610 5609 5606 5597 5588 5581 5577 5573 5572 5573 5569 5569 5564 5557 5549 5534 5529 5528 5524 5525 5525
5558 5571 5580 5589 5600 5609 5609 5600 5598 5602 5602 5602 5599 5597 5600 5597 5603 5606 5602 5608 5599 5598 5604 5604 5604 5590 5581 5579 5577 5573 5573 5568 5562 5558 5552 5542 5531 5519 5514 5519 5522 5522 5524
5559 5569 5578 5589 5596 5603 5599 5595 5593 5588 5586 5589 5589 5589 5588 5586 5591 5602 5604 5603 5598 5593 5601 5595 5590 5579 5572 5572 5571 5571 5568 5563 5550 5547 5541 5532 5523 5514 5510 5513 5517 5523 5521
5559 5568 5574 5586 5598 5592 5589 5584 5581 5581 5573 5575 5577 5576 5576 5572 5583 5591 5598 5604 5595 5595 5590 5579 5576 5568 5565 5565 5570 5568 5564 5554 5552 5548 5544 5533 5524 5518 5513 5511 5508 5507 5511
5556 5563 5572 5583 5590 5579 5569 5567 5565 5566 5562 5558 5560 5561 5561 5563 5577 5585 5589 5593 5595 5593 5579 5570 5560 5557 5557 5555 5555 5553 5547 5546 5545 5544 5540 5530 5523 5516 5508 5500 5496 5498 5501
5550 5562 5566 5567 5564 5560 5561 5558 5556 5553 5550 5547 5551 5548 5546 5554 5565 5574 5582 5588 5587 5579 5567 5562 5548 5547 5547 5546 5543 5540 5540 5536 5540 5538 5533 5522 5516 5510 5499 5493 5494 5493 5494
5543 5548 5547 5547 5544 5543 5550 5548 5547 5542 5541 5535 5536 5532 5538 5549 5554 5557 5564 5573 5574 5567 5558 5546 5541 5542 5540 5536 5537 5534 5535 5536 5534 5528 5522 5514 5507 5499 5495 5495 5497 5496 5495
5530 5534 5536 5536 5532 5529 5527 5529 5534 5533 5526 5519 5515 5521 5540 5540 5541 5547 5553 5556 5562 5556 5539 5540 5539 5538 5537 5538 5533 5531 5527 5523 5523 5518 5510 5503 5497 5493 5494 5495 5497 5494 5490
5529 5530 5528 5526 5521 5516 5511 5509 5516 5512 5519 5523 5508 5517 5529 5543 5536 5539 5546 5552 5548 5542 5539 5539 5540 5540 5536 5532 5528 5525 5519 5516 5512 5505 5496 5494 5492 5490 5492 5489 5488 5484 5480
5527 5526 5521 5519 5512 5507 5515 5503 5492 5503 5506 5505 5500 5504 5521 5531 5527 5532 5534 5536 5537 5535 5539 5538 5538 5533 5529 5526 5524 5518 5511 5503 5497 5492 5485 5482 5484 5487 5484 5483 5479 5478 5472
5525 5519 5513 5512 5509 5508 5504 5503 5494 5483 5484 5492 5494 5501 5525 5522 5518 5520 5529 5530 5528 5530 5534 5533 5530 5524 5521 5518 5512 5508 5499 5487 5484 5481 5478 5474 5475 5476 5474 5470 5469 5468 5465
5512 5512 5513 5509 5507 5507 5502 5497 5498 5493 5492 5488 5488 5501 5503 5504 5513 5520 5523 5525 5526 5526 5528 5523 5519 5516 5513 5509 5501 5492 5486 5480 5474 5471 5467 5462 5463 5461 5461 5461 5461 5460 5460
5515 5510 5509 5509 5506 5506 5500 5499 5503 5504 5500 5497 5494 5488 5495 5504 5511 5514 5519 5524 5524 5521 5518 5516 5511 5507 5501 5496 5488 5479 5473 5467 5466 5462 5454 5449 5446 5448 5449 5450 5453 5450 5453
5505 5504 5506 5506 5504 5507 5510 5514 5511 5508 5506 5503 5502 5500 5505 5512 5515 5516 5517 5517 5516 5513 5511 5505 5500 5495 5489 5486 5479 5472 5468 5462 5456 5447 5443 5433 5433 5436 5439 5441 5443 5445 5448
5505 5504 5508 5508 5510 5514 5514 5514 5512 5510 5510 5507 5507 5510 5510 5515 5515 5514 5510 5508 5507 5501 5499 5493 5489 5484 5477 5472 5468 5463 5456 5449 5440 5438 5433 5421 5424 5424 5427 5433 5432 5434 5437
5516 5517 5520 5523 5520 5519 5517 5519 5520 5519 5519 5515 5509 5506 5507 5514 5512 5507 5504 5500 5495 5490 5486 5482 5476 5469 5463 5457 5453 5447 5441 5435 5431 5429 5421 5416 5414 5416 5420 5423 5423 5425 5431
5534 5534 5532 5529 5527 5525 5526 5523 5520 5517 5514 5512 5511 5512 5510 5507 5504 5500 5497 5491 5483 5478 5476 5470 5465 5458 5451 5445 5437 5432 5425 5419 5418 5414 5414 5409 5410 5408 5412 5411 5414 5417 5420
5535 5534 5534 5532 5530 5530 5529 5526 5522 5518 5518 5515 5514 5511 5507 5501 5496 5489 5482 5477 5474 5468 5462 5458 5453 5447 5440 5429 5423 5414 5405 5404 5404 5405 5404 5403 5403 5402 5401 5404 5406 5409 5412
5537 5536 5534 5533 5531 5528 5526 5524 5521 5519 5519 5515 5510 5504 5497 5490 5483 5478 5474 5469 5464 5457 5450 5445 5439 5432 5420 5413 5407 5400 5395 5391 5391 5394 5395 5395 5395 5393 5392 5397 5398 5402 5404
5535 5534 5533 5532 5530 5528 5525 5523 5520 5517 5513 5508 5501 5495 5489 5482 5474 5470 5465 5461 5453 5446 5441 5434 5426 5417 5404 5402 5395 5389 5383 5384 5384 5384 5384 5386 5387 5387 5385 5389 5390 5393 5395